Location: Cheching
(60.0667°N, 164.2167°W)
Time: 20:03:27
(UTC+00:00)

DX 1 - Pass Details

Date: 27 January 2021
Orbit: 618 x 631 km, 98.5° (Epoch: 26 February)

Event Time Altitude Azimuth Distance (km) Brightness Sun altitude
Exits shadow 05:55:07 38° 154° (SSE) 962 ? -21.5°
Drops below altitude 10° 05:58:01 10° 179° (S) 1,985 ? -21.9°
Sets 06:00:14 0° 185° (S) 2,886 ? -22.2°
